TimeCDT,TemperatureF,Dew PointF,Humidity,Sea Level PressureIn,VisibilityMPH,Wind Direction,Wind SpeedMPH,Gust SpeedMPH,PrecipitationIn,Events,Conditions,WindDirDegrees,DateUTC
12:08 AM,77.0,51.1,40,-9999,-9999.0,South,12.7,-,N/A,,Unknown,170,2013-09-09 05:08:00
12:28 AM,75.9,49.1,39,-9999,-9999.0,South,15.0,-,N/A,,Unknown,170,2013-09-09 05:28:00
12:48 AM,75.9,49.1,39,-9999,-9999.0,South,15.0,-,N/A,,Unknown,170,2013-09-09 05:48:00
1:08 AM,73.9,50.2,43,-9999,-9999.0,South,13.8,-,N/A,,Unknown,170,2013-09-09 06:08:00
1:28 AM,73.0,50.2,44,-9999,-9999.0,South,10.4,-,N/A,,Unknown,170,2013-09-09 06:28:00
1:48 AM,72.0,49.1,44,-9999,-9999.0,South,10.4,-,N/A,,Unknown,180,2013-09-09 06:48:00
2:08 AM,71.1,49.1,46,-9999,-9999.0,South,10.4,-,N/A,,Unknown,180,2013-09-09 07:08:00
2:28 AM,71.1,48.0,44,-9999,-9999.0,South,10.4,-,N/A,,Unknown,190,2013-09-09 07:28:00
2:48 AM,70.0,48.0,46,-9999,-9999.0,South,9.2,-,N/A,,Unknown,180,2013-09-09 07:48:00
3:08 AM,69.1,48.0,47,-9999,-9999.0,SSW,10.4,-,N/A,,Unknown,200,2013-09-09 08:08:00
3:28 AM,69.1,48.0,47,-9999,-9999.0,South,9.2,-,N/A,,Unknown,190,2013-09-09 08:28:00
3:48 AM,69.1,47.1,45,-9999,-9999.0,SSW,10.4,-,N/A,,Unknown,200,2013-09-09 08:48:00
4:08 AM,69.1,48.0,47,-9999,-9999.0,SSW,9.2,-,N/A,,Unknown,200,2013-09-09 09:08:00
4:28 AM,69.1,48.0,47,-9999,-9999.0,South,9.2,-,N/A,,Unknown,190,2013-09-09 09:28:00
4:48 AM,69.1,48.0,47,-9999,-9999.0,SSW,10.4,-,N/A,,Unknown,200,2013-09-09 09:48:00
5:08 AM,69.1,48.0,47,-9999,-9999.0,SSW,11.5,-,N/A,,Unknown,200,2013-09-09 10:08:00
5:28 AM,68.0,49.1,51,-9999,-9999.0,SSW,8.1,-,N/A,,Unknown,200,2013-09-09 10:28:00
5:48 AM,66.9,48.0,51,-9999,-9999.0,South,9.2,-,N/A,,Unknown,190,2013-09-09 10:48:00
6:08 AM,64.0,49.1,58,-9999,-9999.0,South,8.1,-,N/A,,Unknown,170,2013-09-09 11:08:00
6:28 AM,63.0,49.1,61,-9999,-9999.0,South,8.1,-,N/A,,Unknown,170,2013-09-09 11:28:00
6:48 AM,64.0,49.1,58,-9999,-9999.0,South,10.4,-,N/A,,Unknown,180,2013-09-09 11:48:00
7:08 AM,64.0,48.0,56,-9999,-9999.0,South,12.7,-,N/A,,Unknown,180,2013-09-09 12:08:00
7:28 AM,64.0,49.1,58,-9999,-9999.0,South,10.4,-,N/A,,Unknown,180,2013-09-09 12:28:00
7:48 AM,64.0,49.1,58,-9999,-9999.0,South,10.4,-,N/A,,Unknown,180,2013-09-09 12:48:00
8:08 AM,66.0,49.1,54,-9999,-9999.0,South,12.7,-,N/A,,Unknown,190,2013-09-09 13:08:00
8:28 AM,66.9,50.2,55,-9999,-9999.0,South,10.4,-,N/A,,Unknown,190,2013-09-09 13:28:00
8:48 AM,69.1,50.2,51,-9999,-9999.0,SSW,11.5,-,N/A,,Unknown,200,2013-09-09 13:48:00
9:08 AM,71.1,52.2,51,-9999,-9999.0,South,12.7,-,N/A,,Unknown,180,2013-09-09 14:08:00
9:28 AM,75.0,52.2,45,-9999,-9999.0,South,11.5,-,N/A,,Unknown,190,2013-09-09 14:28:00
9:48 AM,77.0,53.1,43,-9999,-9999.0,SSW,11.5,-,N/A,,Unknown,200,2013-09-09 14:48:00
10:08 AM,79.0,53.1,40,-9999,-9999.0,SSW,13.8,-,N/A,,Unknown,200,2013-09-09 15:08:00
10:28 AM,81.0,54.1,39,-9999,-9999.0,South,12.7,-,N/A,,Unknown,190,2013-09-09 15:28:00
10:48 AM,82.0,53.1,37,-9999,-9999.0,SSW,15.0,-,N/A,,Unknown,200,2013-09-09 15:48:00
11:08 AM,84.0,54.1,36,-9999,-9999.0,South,13.8,-,N/A,,Unknown,190,2013-09-09 16:08:00
11:28 AM,84.9,54.1,35,-9999,-9999.0,SSW,18.4,-,N/A,,Unknown,200,2013-09-09 16:28:00
11:48 AM,86.0,55.0,35,-9999,-9999.0,South,16.1,-,N/A,,Unknown,190,2013-09-09 16:48:00
12:08 PM,87.1,54.1,32,-9999,-9999.0,SSW,18.4,-,N/A,,Unknown,210,2013-09-09 17:08:00
12:28 PM,88.0,56.1,34,-9999,-9999.0,South,13.8,-,N/A,,Unknown,190,2013-09-09 17:28:00
12:48 PM,89.1,54.1,30,-9999,-9999.0,South,18.4,-,N/A,,Unknown,180,2013-09-09 17:48:00
1:08 PM,88.0,54.1,31,-9999,-9999.0,South,16.1,-,N/A,,Unknown,180,2013-09-09 18:08:00
1:28 PM,89.1,55.0,31,-9999,-9999.0,South,10.4,-,N/A,,Unknown,180,2013-09-09 18:28:00
1:48 PM,90.0,55.0,30,-9999,-9999.0,South,17.3,-,N/A,,Unknown,170,2013-09-09 18:48:00
2:08 PM,89.1,54.1,30,-9999,-9999.0,South,17.3,-,N/A,,Unknown,190,2013-09-09 19:08:00
2:28 PM,90.0,53.1,28,-9999,-9999.0,SSW,12.7,-,N/A,,Unknown,200,2013-09-09 19:28:00
2:48 PM,90.0,54.1,29,-9999,-9999.0,South,15.0,-,N/A,,Unknown,180,2013-09-09 19:48:00
3:08 PM,91.0,53.1,27,-9999,-9999.0,South,16.1,-,N/A,,Unknown,190,2013-09-09 20:08:00
3:28 PM,91.0,54.1,28,-9999,-9999.0,South,11.5,-,N/A,,Unknown,180,2013-09-09 20:28:00
3:48 PM,90.0,53.1,28,-9999,-9999.0,SSW,16.1,-,N/A,,Unknown,200,2013-09-09 20:48:00
4:08 PM,91.0,53.1,27,-9999,-9999.0,South,15.0,-,N/A,,Unknown,180,2013-09-09 21:08:00
4:28 PM,91.0,53.1,27,-9999,-9999.0,South,15.0,-,N/A,,Unknown,170,2013-09-09 21:28:00
4:48 PM,91.0,52.2,26,-9999,-9999.0,South,12.7,-,N/A,,Unknown,190,2013-09-09 21:48:00
5:08 PM,91.0,51.1,25,-9999,-9999.0,South,20.7,-,N/A,,Unknown,170,2013-09-09 22:08:00
5:28 PM,91.0,51.1,25,-9999,-9999.0,South,13.8,-,N/A,,Unknown,180,2013-09-09 22:28:00
5:48 PM,90.0,50.2,25,-9999,-9999.0,SSE,18.4,-,N/A,,Unknown,160,2013-09-09 22:48:00
6:08 PM,90.0,51.1,26,-9999,-9999.0,South,13.8,-,N/A,,Unknown,170,2013-09-09 23:08:00
6:28 PM,89.1,51.1,27,-9999,-9999.0,South,16.1,-,N/A,,Unknown,170,2013-09-09 23:28:00
6:48 PM,88.0,50.2,27,-9999,-9999.0,South,16.1,-,N/A,,Unknown,170,2013-09-09 23:48:00
7:08 PM,87.1,50.2,28,-9999,-9999.0,South,15.0,-,N/A,,Unknown,170,2013-09-10 00:08:00
7:28 PM,86.0,49.1,28,-9999,-9999.0,South,13.8,-,N/A,,Unknown,170,2013-09-10 00:28:00
7:48 PM,82.9,49.1,31,-9999,-9999.0,South,9.2,-,N/A,,Unknown,170,2013-09-10 00:48:00
8:08 PM,80.1,50.2,35,-9999,-9999.0,South,10.4,-,N/A,,Unknown,170,2013-09-10 01:08:00
8:28 PM,79.0,50.2,36,-9999,-9999.0,SSE,10.4,-,N/A,,Unknown,160,2013-09-10 01:28:00
8:48 PM,77.0,51.1,40,-9999,-9999.0,SSE,10.4,-,N/A,,Unknown,160,2013-09-10 01:48:00
9:08 PM,75.9,52.2,43,-9999,-9999.0,SSE,8.1,-,N/A,,Unknown,160,2013-09-10 02:08:00
9:28 PM,73.0,52.2,48,-9999,-9999.0,SSE,8.1,-,N/A,,Unknown,160,2013-09-10 02:28:00
9:48 PM,73.9,52.2,46,-9999,-9999.0,South,11.5,-,N/A,,Unknown,170,2013-09-10 02:48:00
10:08 PM,75.0,53.1,46,-9999,-9999.0,SSE,10.4,-,N/A,,Unknown,160,2013-09-10 03:08:00
10:28 PM,75.0,52.2,45,-9999,-9999.0,South,12.7,-,N/A,,Unknown,170,2013-09-10 03:28:00
10:48 PM,75.0,52.2,45,-9999,-9999.0,South,10.4,-,N/A,,Unknown,170,2013-09-10 03:48:00
11:08 PM,75.0,52.2,45,-9999,-9999.0,South,12.7,-,N/A,,Unknown,180,2013-09-10 04:08:00
11:28 PM,73.9,52.2,46,-9999,-9999.0,South,11.5,-,N/A,,Unknown,180,2013-09-10 04:28:00
11:48 PM,73.9,52.2,46,-9999,-9999.0,South,11.5,-,N/A,,Unknown,180,2013-09-10 04:48:00